Regional Weather Roundup
Issued by NWS Lake Charles, LA

Home | Current Version | Previous Version | Text Only | Print | Product List | Glossary On
Versions: 1 2 3 4 5 6 7 8 9 10 11 12 13 14 15 16 17 18 19 20 21 22 23 24 25 26 27 28 29 30 31 32 33 34 35 36 37 38 39 40 41 42 43 44 45 46 47 48 49 50
000
ASUS44 KLCH 211810
RWRLCH
RWRLCH
REGIONAL WEATHER ROUNDUP
NATIONAL WEATHER SERVICE LAKE CHARLES LA
1200 PM CST SUN DEC 21 2014

Note: "fair" indicates few or no clouds below 12,000 feet with no
significant weather and/or obstructions to visibility.


ACROSS SOUTHEAST TEXAS

CITY           SKY/WX    TMP DP  RH WIND       PRES   REMARKS
BEAUMONT       CLOUDY    52  47  83 VRB3      30.09F
BEAUMONT CITY  CLOUDY    51  47  88 CALM      30.10F
ORANGE         CLOUDY    51  48  90 CALM      30.11F FOG
JASPER         CLOUDY    47  45  93 CALM      30.12F
$$

ACROSS CENTRAL LOUISIANA

CITY           SKY/WX    TMP DP  RH WIND       PRES   REMARKS
LEESVILLE      SUNNY     58  47  68 VRB2      30.07F
FULLERTON        N/A     62  47  57 VRB3      30.05F
ALEXANDRIA INT MOSUNNY   54  47  77 SE7       30.08F
ESLER FIELD    CLOUDY    52  46  80 S5        30.09F
DERIDDER       CLOUDY    49  47  91 CALM      30.11F
OAKDALE        CLOUDY    49  47  90 CALM      30.09F
OPELOUSAS      CLOUDY    50  48  93 E3        30.09F
$$

ACROSS SOUTHWEST AND SOUTH CENTRAL LOUISIANA

CITY           SKY/WX    TMP DP  RH WIND       PRES   REMARKS
SULPHUR        CLOUDY    50  49  97 CALM      30.11F FOG
LAKE CHARLES   CLOUDY    48  47  96 S3        30.10F FOG
CHENNAULT INT  FOG       48  48 100 SE5       30.10F VSB 3/4
CAMERON PHI    CLOUDY    52  50  93 NE5       30.12F
DEQUINCY       CLOUDY    47  47 100 CALM      30.09F
JENNINGS       CLOUDY    49  48  97 CALM      30.09F FOG
LAFAYETTE      CLOUDY    50  48  93 VRB3      30.09F FOG
NEW IBERIA     CLOUDY    52  49  89 NE7       30.10F FOG
ABBEVILLE      CLOUDY    50  49  95 CALM      30.09F
PATTERSON      CLOUDY    54  48  82 N3        30.09F
SALT POINT       N/A     59  51  75 VRB3      30.08F
$$

SELECTED SITES ACROSS THE REGION

CITY           SKY/WX    TMP DP  RH WIND       PRES   REMARKS
HOUSTON BUSH   PTSUNNY   57  47  69 NE5       30.08F
HOUSTON HOBBY  PTSUNNY   59  49  69 VRB3      30.07F
GALVESTON      CLOUDY    58  51  78 N10       30.07F
COLLEGE STAT   CLOUDY    53  45  74 S5        30.08F
CONROE         CLOUDY    54  46  74 E5        30.09F
HUNTSVILLE     CLOUDY    53  46  77 CALM      30.08F
LUFKIN         CLOUDY    53  44  71 VRB3      30.09F
SHREVEPORT     PTSUNNY   54  44  69 SE6       30.09F
MONROE         SUNNY     56  42  59 E3        30.11F
NATCHEZ MS     MOSUNNY   54  46  76 SE3       30.09F
BATON ROUGE    CLOUDY    56  47  71 CALM      30.09F
N.O. INTL ARPT CLOUDY    58  49  72 CALM      30.10F
SLIDELL        CLOUDY    59  49  69 CALM      30.09F
$$

MARINE REPORTS

STATION/POSITION TIME  TEMP    WIND        PRES    VSBY  WAVE
                       AIR SEA DIR/SP/G                  HT/PER
                 (UTC) (F)     (DEG/KT/KT) (MB)    (MI)  (FT/S)
BUOY 30 S HIGH I 1800   55 64   30/  8/ 10 1018.4F         2/ 5
SEA RIM ST PARK  1800   52     360/  5/  7 1019.4F
PORT ARTHUR      1800      59   20/  3/  5 1019.2F
SABINE PASS N    1800   52 58   10/  3/  4 1018.8F
TEXAS POINT      NOT AVBL
CALCASIEU PASS   1800   50 57   40/  6/  7   N/A
LK CHARLES BEACH 1800   48 60              1019.2F
MARSH ISLAND     NOT AVBL
FRESH WATER LOCK 1800   52 58   10/  5/  7 1018.8F
AMERADA PASS     1800   54 49   30/  3/  5 1018.5F
$$


USA.gov is the U.S. government's official web portal to all federal, state and local government web resources and services.